WMT8812 LIRF-LEIB

Flight info

Callsign WMT8812
Flight time 1h 31m
Altitude 35000
Route ESINO DCT ABIDU DCT GOKMI DCT SUPUX DCT KUPIM DCT SUXER DCT RIPAL DCT MORSS
Aircraft A321/M-SDE1E2E3FGIJ1J4RWXY/LB1

Departure

Time 2026-05-04 15:33
Airport Rome–Fiumicino Leonardo da Vinci International Airport (LIRF)

Arrival

Time 2026-05-04 17:04
Airport Ibiza Airport (LEIB)
Time Latitude Longitude Altitude Speed Heading
2026-05-04 14:59 41.79612 12.25946 16 ft 0 kts 296°
2026-05-04 15:17 41.79607 12.25961 15 ft 4 kts 296°
2026-05-04 15:17 41.79582 12.26012 14 ft 4 kts 343°
2026-05-04 15:17 41.79560 12.26010 15 ft 4 kts 25°
2026-05-04 15:18 41.79552 12.26005 15 ft 0 kts 25°
2026-05-04 15:23 41.79554 12.26006 16 ft 1 kts 25°
2026-05-04 15:23 41.79572 12.26012 14 ft 5 kts
2026-05-04 15:23 41.79611 12.26019 14 ft 6 kts 13°
2026-05-04 15:24 41.79705 12.26076 15 ft 9 kts 25°
2026-05-04 15:24 41.79818 12.26118 14 ft 10 kts 313°
2026-05-04 15:25 41.79850 12.26035 14 ft 11 kts 295°
2026-05-04 15:25 41.79882 12.25942 14 ft 12 kts 295°
2026-05-04 15:25 41.79934 12.25868 14 ft 12 kts
2026-05-04 15:26 41.80096 12.25961 14 ft 14 kts 24°
2026-05-04 15:26 41.80187 12.26016 14 ft 15 kts 25°
2026-05-04 15:26 41.80384 12.26138 15 ft 16 kts 25°
2026-05-04 15:27 41.80488 12.26178 16 ft 16 kts 10°
2026-05-04 15:27 41.80581 12.26429 16 ft 15 kts 70°
2026-05-04 15:28 41.80657 12.26707 15 ft 17 kts 69°
2026-05-04 15:28 41.80700 12.26863 14 ft 18 kts 70°
2026-05-04 15:28 41.80835 12.27028 13 ft 14 kts 341°
2026-05-04 15:29 41.80931 12.26981 13 ft 15 kts 340°
2026-05-04 15:30 41.80955 12.26914 13 ft 0 kts 250°
2026-05-04 15:32 41.80793 12.26328 18 ft 98 kts 249°
2026-05-04 15:32 41.80092 12.23745 397 ft 168 kts 249°
2026-05-04 15:33 41.79322 12.20758 1768 ft 174 kts 257°
2026-05-04 15:34 41.78962 12.15291 3032 ft 207 kts 244°
2026-05-04 15:34 41.78125 12.13762 3564 ft 204 kts 217°
2026-05-04 15:34 41.75800 12.11408 4290 ft 227 kts 211°
2026-05-04 15:35 41.72903 12.08929 5155 ft 258 kts 210°
2026-05-04 15:35 41.71373 12.07628 5903 ft 262 kts 211°
2026-05-04 15:35 41.69828 12.06309 6644 ft 265 kts 211°
2026-05-04 15:36 41.66688 12.03624 8146 ft 270 kts 212°
2026-05-04 15:36 41.65100 12.02260 8964 ft 272 kts 213°
2026-05-04 15:36 41.63501 12.00885 9675 ft 276 kts 213°
2026-05-04 15:37 41.61876 11.99489 10340 ft 281 kts 213°
2026-05-04 15:37 41.60168 11.98022 10534 ft 303 kts 213°
2026-05-04 15:37 41.58354 11.96462 10697 ft 324 kts 213°
2026-05-04 15:37 41.56430 11.94811 11190 ft 332 kts 214°
2026-05-04 15:38 41.54473 11.93137 11825 ft 336 kts 214°
2026-05-04 15:38 41.52493 11.91445 12460 ft 340 kts 214°
2026-05-04 15:38 41.50491 11.89733 13097 ft 343 kts 214°
2026-05-04 15:38 41.48472 11.88005 13749 ft 347 kts 215°
2026-05-04 15:39 41.46435 11.86262 14348 ft 349 kts 215°
2026-05-04 15:39 41.44378 11.84506 14953 ft 352 kts 215°
2026-05-04 15:39 41.40314 11.80808 16149 ft 355 kts 224°
2026-05-04 15:40 41.38660 11.78376 16747 ft 355 kts 236°
2026-05-04 15:40 41.37430 11.75524 17319 ft 356 kts 248°
2026-05-04 15:40 41.36579 11.72461 17887 ft 359 kts 251°
2026-05-04 15:40 41.35735 11.69321 18477 ft 362 kts 251°
2026-05-04 15:41 41.34877 11.66163 18956 ft 365 kts 250°
2026-05-04 15:41 41.34006 11.62977 19431 ft 368 kts 250°
2026-05-04 15:41 41.33126 11.59764 19914 ft 371 kts 250°
2026-05-04 15:41 41.32238 11.56521 20405 ft 375 kts 250°
2026-05-04 15:42 41.31343 11.53250 20895 ft 378 kts 251°
2026-05-04 15:42 41.30439 11.49952 21389 ft 381 kts 251°
2026-05-04 15:42 41.29526 11.46621 21878 ft 385 kts 251°
2026-05-04 15:42 41.28608 11.43269 22337 ft 388 kts 251°
2026-05-04 15:43 41.27681 11.39884 22795 ft 391 kts 251°
2026-05-04 15:43 41.26761 11.36522 23246 ft 394 kts 251°
2026-05-04 15:43 41.25817 11.33086 23684 ft 397 kts 251°
2026-05-04 15:43 41.24861 11.29625 24067 ft 400 kts 250°
2026-05-04 15:44 41.23902 11.26156 24481 ft 400 kts 250°
2026-05-04 15:44 41.22943 11.22688 24920 ft 401 kts 250°
2026-05-04 15:44 41.21982 11.19209 25347 ft 401 kts 251°
2026-05-04 15:44 41.21023 11.15736 25776 ft 401 kts 251°
2026-05-04 15:45 41.20060 11.12265 26204 ft 401 kts 251°
2026-05-04 15:45 41.19091 11.08788 26634 ft 401 kts 251°
2026-05-04 15:45 41.18136 11.05362 27052 ft 401 kts 251°
2026-05-04 15:45 41.17167 11.01888 27476 ft 401 kts 252°
2026-05-04 15:46 41.16199 10.98412 27869 ft 402 kts 252°
2026-05-04 15:46 41.15230 10.94934 28267 ft 402 kts 252°
2026-05-04 15:46 41.14256 10.91453 28650 ft 403 kts 252°
2026-05-04 15:46 41.13281 10.87971 29012 ft 403 kts 252°
2026-05-04 15:47 41.12305 10.84491 29088 ft 402 kts 252°
2026-05-04 15:47 41.10350 10.77559 29097 ft 401 kts 252°
2026-05-04 15:48 41.08726 10.71819 29091 ft 400 kts 252°
2026-05-04 15:48 41.05486 10.60328 29092 ft 401 kts 252°
2026-05-04 15:49 41.03527 10.53406 29081 ft 401 kts 251°
2026-05-04 15:49 41.01895 10.47661 29090 ft 401 kts 252°
2026-05-04 15:50 40.99920 10.40759 29087 ft 401 kts 251°
2026-05-04 15:50 40.97689 10.32728 29304 ft 402 kts 253°
2026-05-04 15:51 40.96814 10.29207 29658 ft 403 kts 254°
2026-05-04 15:51 40.96239 10.26813 29895 ft 404 kts 255°
2026-05-04 15:51 40.95407 10.23315 30229 ft 405 kts 255°
2026-05-04 15:51 40.94557 10.19761 30546 ft 406 kts 254°
2026-05-04 15:52 40.93692 10.16202 30838 ft 407 kts 253°
2026-05-04 15:52 40.92814 10.12653 31214 ft 405 kts 253°
2026-05-04 15:52 40.91641 10.07984 31760 ft 402 kts 253°
2026-05-04 15:52 40.91042 10.05620 32038 ft 401 kts 253°
2026-05-04 15:53 40.90158 10.02128 32350 ft 402 kts 253°
2026-05-04 15:53 40.89273 9.98617 32606 ft 403 kts 253°
2026-05-04 15:53 40.88402 9.95154 32923 ft 403 kts 253°
2026-05-04 15:53 40.87521 9.91641 33297 ft 402 kts 253°
2026-05-04 15:54 40.86643 9.88146 33684 ft 400 kts 253°
2026-05-04 15:54 40.85765 9.84666 34051 ft 398 kts 253°
2026-05-04 15:54 40.84887 9.81201 34400 ft 396 kts 253°
2026-05-04 15:54 40.84013 9.77766 34761 ft 394 kts 253°
2026-05-04 15:55 40.83140 9.74338 35009 ft 393 kts 253°
2026-05-04 15:55 40.82285 9.70978 35056 ft 389 kts 253°
2026-05-04 15:55 40.80575 9.64232 35060 ft 387 kts 253°
2026-05-04 15:56 40.78865 9.57507 35055 ft 386 kts 253°
2026-05-04 15:56 40.77147 9.50790 35060 ft 386 kts 253°
2026-05-04 15:57 40.75439 9.44122 35066 ft 387 kts 252°
2026-05-04 15:57 40.73703 9.37396 35055 ft 388 kts 253°
2026-05-04 15:58 40.71959 9.30666 35061 ft 388 kts 253°
2026-05-04 15:58 40.70216 9.23948 35067 ft 388 kts 253°
2026-05-04 15:59 40.68489 9.17269 35078 ft 388 kts 253°
2026-05-04 15:59 40.66750 9.10544 35065 ft 388 kts 253°
2026-05-04 16:00 40.65004 9.03832 35067 ft 387 kts 252°
2026-05-04 16:00 40.63246 8.97124 35060 ft 387 kts 252°
2026-05-04 16:01 40.61479 8.90425 35054 ft 387 kts 252°
2026-05-04 16:01 40.59728 8.83773 35063 ft 387 kts 252°
2026-05-04 16:02 40.57960 8.77078 35051 ft 387 kts 252°
2026-05-04 16:03 40.55302 8.67042 35064 ft 387 kts 252°
2026-05-04 16:03 40.53531 8.60366 35060 ft 387 kts 252°
2026-05-04 16:04 40.51771 8.53743 35063 ft 386 kts 252°
2026-05-04 16:04 40.49107 8.43761 35061 ft 386 kts 252°
2026-05-04 16:05 40.47331 8.37127 35056 ft 386 kts 252°
2026-05-04 16:06 40.44656 8.27214 35057 ft 385 kts 251°
2026-05-04 16:06 40.43395 8.16863 35044 ft 385 kts 265°
2026-05-04 16:07 40.43208 8.13356 35044 ft 385 kts 264°
2026-05-04 16:08 40.42384 7.99383 35036 ft 385 kts 260°
2026-05-04 16:09 40.40199 7.82082 35039 ft 384 kts 259°
2026-05-04 16:10 40.38445 7.68313 35034 ft 383 kts 259°
2026-05-04 16:11 40.36673 7.54528 35033 ft 383 kts 258°
2026-05-04 16:12 40.33980 7.33895 35025 ft 384 kts 258°
2026-05-04 16:13 40.32164 7.20115 35016 ft 384 kts 258°
2026-05-04 16:14 40.30355 7.06393 35016 ft 384 kts 258°
2026-05-04 16:16 40.28035 6.89194 35011 ft 383 kts 258°
2026-05-04 16:17 40.25705 6.72043 34992 ft 384 kts 258°
2026-05-04 16:18 40.23802 6.58249 34992 ft 385 kts 258°
2026-05-04 16:19 40.21425 6.41043 35003 ft 385 kts 257°
2026-05-04 16:20 40.19003 6.23836 34997 ft 384 kts 257°
2026-05-04 16:22 40.16570 6.06708 35015 ft 384 kts 256°
2026-05-04 16:23 40.13616 5.86138 34993 ft 385 kts 256°
2026-05-04 16:25 40.10699 5.65484 34991 ft 385 kts 256°
2026-05-04 16:26 40.07265 5.41458 34986 ft 385 kts 256°
2026-05-04 16:28 40.04793 5.24338 34995 ft 385 kts 256°
2026-05-04 16:29 40.01269 5.00404 34973 ft 384 kts 256°
2026-05-04 16:31 39.98726 4.83304 34988 ft 383 kts 255°
2026-05-04 16:32 39.94996 4.63158 34974 ft 381 kts 251°
2026-05-04 16:33 39.92198 4.49823 34986 ft 382 kts 252°
2026-05-04 16:34 39.90154 4.39844 34991 ft 382 kts 252°
2026-05-04 16:35 39.85842 4.19803 34995 ft 380 kts 247°
2026-05-04 16:36 39.83076 4.10159 35005 ft 379 kts 247°
2026-05-04 16:37 39.80314 4.00556 34992 ft 378 kts 247°
2026-05-04 16:38 39.76632 3.87815 34973 ft 378 kts 247°
2026-05-04 16:39 39.72007 3.71877 34948 ft 376 kts 247°
2026-05-04 16:40 39.68306 3.59220 34956 ft 377 kts 247°
2026-05-04 16:41 39.63644 3.43337 34960 ft 377 kts 247°
2026-05-04 16:43 39.58977 3.27530 34961 ft 376 kts 247°
2026-05-04 16:43 39.56163 3.18029 34954 ft 376 kts 247°
2026-05-04 16:45 39.50519 2.99114 34719 ft 375 kts 247°
2026-05-04 16:46 39.47730 2.89787 33547 ft 364 kts 246°
2026-05-04 16:46 39.45912 2.83763 32743 ft 354 kts 246°
2026-05-04 16:47 39.44152 2.77951 31958 ft 345 kts 245°
2026-05-04 16:47 39.41615 2.72801 31017 ft 339 kts 231°
2026-05-04 16:48 39.37181 2.65769 29608 ft 334 kts 231°
2026-05-04 16:48 39.35720 2.63448 29128 ft 331 kts 231°
2026-05-04 16:49 39.32856 2.58903 28275 ft 326 kts 231°
2026-05-04 16:49 39.30019 2.54408 27462 ft 320 kts 232°
2026-05-04 16:50 39.27223 2.49994 26661 ft 315 kts 232°
2026-05-04 16:50 39.24468 2.45660 25879 ft 309 kts 231°
2026-05-04 16:51 39.21769 2.41403 25114 ft 304 kts 232°
2026-05-04 16:51 39.20441 2.39304 24731 ft 301 kts 232°
2026-05-04 16:51 39.17833 2.35189 23986 ft 296 kts 232°
2026-05-04 16:52 39.15243 2.31119 23155 ft 291 kts 232°
2026-05-04 16:52 39.13963 2.29113 22761 ft 288 kts 232°
2026-05-04 16:53 39.11443 2.25168 21983 ft 282 kts 232°
2026-05-04 16:53 39.07748 2.19377 20826 ft 278 kts 232°
2026-05-04 16:54 39.06521 2.17457 20438 ft 277 kts 232°
2026-05-04 16:55 39.03973 2.07869 17597 ft 313 kts 257°
2026-05-04 16:55 39.03087 2.02096 15800 ft 336 kts 257°
2026-05-04 16:56 39.02190 1.96257 14085 ft 333 kts 257°
2026-05-04 16:56 39.00846 1.87578 11431 ft 325 kts 257°
2026-05-04 16:57 39.00406 1.84747 10592 ft 321 kts 257°
2026-05-04 16:57 38.99577 1.79418 9711 ft 278 kts 257°
2026-05-04 16:58 38.98495 1.72521 7617 ft 258 kts 257°
2026-05-04 16:58 38.98139 1.70271 6911 ft 255 kts 257°
2026-05-04 16:59 38.97444 1.65884 5593 ft 246 kts 258°
2026-05-04 17:00 38.95756 1.57821 3315 ft 214 kts 242°
2026-05-04 17:00 38.93891 1.53321 2548 ft 169 kts 241°
2026-05-04 17:01 38.92864 1.50828 2117 ft 146 kts 240°
2026-05-04 17:01 38.91945 1.48600 1772 ft 137 kts 239°
2026-05-04 17:02 38.91063 1.46461 1354 ft 135 kts 238°
2026-05-04 17:02 38.90195 1.44342 985 ft 134 kts 237°
2026-05-04 17:03 38.89904 1.43639 880 ft 134 kts 239°
2026-05-04 17:03 38.89317 1.42213 659 ft 136 kts 239°
2026-05-04 17:03 38.88439 1.40097 276 ft 133 kts 238°
2026-05-04 17:04 38.87606 1.38098 16 ft 117 kts 241°
2026-05-04 17:04 38.87144 1.36974 11 ft 25 kts 242°
2026-05-04 17:05 38.87102 1.36696 8 ft 9 kts 267°
2026-05-04 17:05 38.87153 1.36566 8 ft 10 kts 22°
2026-05-04 17:06 38.87232 1.36732 9 ft 12 kts 63°
2026-05-04 17:06 38.87274 1.36836 9 ft 14 kts 62°
2026-05-04 17:07 38.87394 1.36803 9 ft 11 kts 334°
2026-05-04 17:07 38.87436 1.36807 8 ft 10 kts 37°
2026-05-04 17:07 38.87482 1.36908 9 ft 6 kts 63°
2026-05-04 17:07 38.87486 1.36918 9 ft 2 kts 63°
2026-05-04 17:08 38.87496 1.36942 9 ft 4 kts 56°
2026-05-04 17:08 38.87552 1.36925 9 ft 2 kts 332°
2026-05-04 17:08 38.87563 1.36918 8 ft 0 kts 333°